Location: The Saddle
(36.8333°N, 80.3417°W)
Time: 09:28:57
(UTC-05:00)

A-11 Canister half - Visible Passes

Search period start: 02 December 2023 00:00
Search period end: 12 December 2023 00:00
Orbit: 1514 x 1685 km, 47.2° (Epoch: 01 December)

Date Brightness Start Highest point End Pass type
(mag) Time Alt. Az. Time Alt. Az. Time Alt. Az.
02 Dec 10.9 02:12:22 18° NE 02:12:22 18° NE 02:14:27 10° ENE visible
02 Dec 9.5 04:10:33 46° N 04:10:56 46° N 04:20:36 10° ENE visible
02 Dec 9.4 06:08:45 14° NW 06:17:33 63° NNE 06:27:39 10° ESE visible
03 Dec 11.2 01:50:42 13° NE 01:50:42 13° NE 01:51:25 10° ENE visible
03 Dec 9.6 03:48:54 45° NNE 03:48:54 45° NNE 03:57:30 10° ENE visible
03 Dec 9.4 05:47:06 20° NW 05:54:30 61° NNE 06:04:34 10° ESE visible
04 Dec 9.9 03:27:15 40° NNE 03:27:15 40° NNE 03:34:23 10° ENE visible
04 Dec 9.4 05:25:27 27° NW 05:31:26 59° NNE 05:41:28 10° E visible
05 Dec 10.2 03:05:36 33° NE 03:05:36 33° NE 03:11:17 10° ENE visible
05 Dec 9.4 05:03:48 34° NW 05:08:22 57° NNE 05:18:21 10° E visible
06 Dec 10.5 02:43:59 26° NE 02:43:59 26° NE 02:48:10 10° ENE visible
06 Dec 9.4 04:42:11 43° NNW 04:45:18 56° NNE 04:55:15 10° E visible
06 Dec 9.3 06:40:49 10° WNW 06:50:49 72° SW 07:00:56 10° SE visible
07 Dec 10.8 02:22:23 20° ENE 02:22:23 20° ENE 02:25:05 10° ENE visible
07 Dec 9.4 04:20:35 50° NNW 04:22:14 54° NNE 04:32:08 10° E visible
07 Dec 9.2 06:18:47 14° WNW 06:27:51 76° SW 06:37:59 10° SE visible
08 Dec 11.1 02:00:48 14° ENE 02:00:48 14° ENE 02:02:00 10° ENE visible
08 Dec 9.4 03:59:00 53° NNE 03:59:09 53° NNE 04:09:00 10° E visible
08 Dec 9.2 05:57:13 20° WNW 06:04:51 79° SW 06:15:02 10° SE visible
09 Dec 9.6 03:37:27 49° NE 03:37:27 49° NE 03:45:53 10° E visible
09 Dec 9.1 05:35:40 28° WNW 05:41:51 83° SW 05:52:03 10° SE visible
10 Dec 9.9 03:15:56 41° NE 03:15:56 41° NE 03:22:46 10° E visible
10 Dec 9.0 05:14:10 38° WNW 05:18:51 87° SW 05:29:04 10° SE visible
10 Dec 10.9 20:26:32 10° S 20:26:54 11° S 20:26:54 11° S visible
11 Dec 10.3 02:54:28 32° ENE 02:54:28 32° ENE 02:59:37 10° E visible
11 Dec 9.0 04:52:41 51° NW 04:55:51 90° NE 05:06:04 10° SE visible
11 Dec 10.0 06:51:47 10° WNW 07:00:08 31° SW 07:08:35 10° S visible
11 Dec 10.6 20:04:00 10° S 20:05:40 15° SSE 20:05:40 15° SSE visible
